Location: Big Prairie
(40.6673°N, 82.0952°W)
Time: 00:30:01
(UTC+00:00)

Cosmos 841 Rocket - Pass Details

Date: 06 July 2022
Orbit: 745 x 772 km, 74.0° (Epoch: 15 August)

Event Time Altitude Azimuth Distance (km) Brightness Sun altitude
Exits shadow 06:51:31 70° 200° (SSW) 797 3.3 -24.1°
Maximum altitude 06:52:09 89° 289° (WNW) 755 3.3 -24.0°
Drops below altitude 10° 06:57:20 10° 19° (NNE) 2,283 7.1 -23.7°
Sets 06:59:43 0° 20° (NNE) 3,216 8.2 -23.5°
